Location: Newark
(41.1142°N, 73.9831°W)
Time: 05:54:37
(UTC+00:00)

ISS - Pass Details

Date: 21 September 2019
Orbit: 411 x 421 km, 51.6° (Epoch: 22 October)

Event Time Altitude Azimuth Distance (km) Brightness Sun altitude
Rises 01:30:31 0° 268° (W) 2,338 0.9 -28.5°
Reaches altitude 10° 01:32:52 10° 283° (WNW) 1,478 -0.1 -28.9°
Enters shadow 01:34:01 17° 299° (WNW) 1,141 -0.8 -29.1°
